Location: Strada George Coșbuc
(47.6577°N, 23.5639°E)
Time: 01:27:23
(UTC+03:00)

ISS - Pass Details

Date: 28 September 2017
Orbit: 401 x 407 km, 51.6° (Epoch: 23 September)

Event Time Altitude Azimuth Distance (km) Brightness Sun altitude
Rises 19:42:00 0° 213° (SSW) 2,306 0.4 -6.0°
Reaches altitude 10° 19:44:16 10° 200° (SSW) 1,452 -0.8 -6.4°
Maximum altitude 19:47:02 26° 142° (SE) 844 -2.6 -6.9°
Drops below altitude 10° 19:49:49 10° 83° (E) 1,462 -1.7 -7.3°
Enters shadow 19:49:56 - 82° (E) 1,506 -1.6 -7.4°
